Alges — CSPH — position and weather

sailwx.info

Track history (hours):
 
Tides and Currents Weather Stations Pressure Air Temp Water Temp Dewpoint Dewpoint Depression Visibility Wind Speed Wind Dir Waves Ship Positions

Alges

Last reported at 2014-Jul-23 09:33 UTC. Time now 2014-Jul-23 09:49 UTC.
Position N 38°41' W 009°09'.

Length 45 m; draft 24.8 m.

Type: Passenger vessel. MMSI: 263700008.

Date/timePositionNaut miles runAvg speedWind from/ knotsBaromVisibWave heightAir tempDewpointWater temp
2014-Jul-23 09:33N 38°41' W 009°09'1 0.7
2014-Jul-23 08:33N 38°42' W 009°08'1 0.6
2014-Jul-23 07:33N 38°42' W 009°08'0 0.3
2014-Jul-23 06:32N 38°42' W 009°08'1 1.5
2014-Jul-23 05:33N 38°41' W 009°09'0 0.0
2014-Jul-22 10:04N 38°41' W 009°09'  
2014-Jul-16 18:33N 38°41' W 009°09'1 1.0
2014-Jul-16 17:33N 38°42' W 009°08'7 6.3
2014-Jul-16 16:28N 38°41' W 009°17'6 3.1
2014-Jul-16 14:28N 38°42' W 009°09'2 1.8
2014-Jul-16 13:29N 38°41' W 009°11'2 1.6
2014-Jul-16 12:33N 38°41' W 009°09'0 0.0
2014-Jul-16 10:24N 38°41' W 009°09'0 0.0
2014-Jul-16 09:33N 38°41' W 009°09'0 0.0
2014-Jul-15 14:04N 38°41' W 009°09'0 0.0
2014-Jul-15 13:33N 38°41' W 009°09'0 0.0
2014-Jul-15 10:08N 38°41' W 009°09'0 0.0
2014-Jul-15 09:34N 38°41' W 009°09'  
Track history (hours):
 
Tides and Currents Weather Stations Pressure Air Temp Water Temp Dewpoint Dewpoint Depression Visibility Wind Speed Wind Dir Waves Ship Positions

Alges

Last reported at 2014-Jul-23 09:33 UTC. Time now 2014-Jul-23 09:49 UTC.
Position N 38°41' W 009°09'.

Length 45 m; draft 24.8 m.

Type: Passenger vessel. MMSI: 263700008.

Date/timePositionNaut miles runAvg speedWind from/ knotsBaromVisibWave heightAir tempDewpointWater temp
2014-Jul-23 09:33N 38°41' W 009°09'1 0.7
2014-Jul-23 08:33N 38°42' W 009°08'1 0.6
2014-Jul-23 07:33N 38°42' W 009°08'0 0.3
2014-Jul-23 06:32N 38°42' W 009°08'1 1.5
2014-Jul-23 05:33N 38°41' W 009°09'0 0.0
2014-Jul-22 10:04N 38°41' W 009°09'  
2014-Jul-16 18:33N 38°41' W 009°09'1 1.0
2014-Jul-16 17:33N 38°42' W 009°08'7 6.3
2014-Jul-16 16:28N 38°41' W 009°17'6 3.1
2014-Jul-16 14:28N 38°42' W 009°09'2 1.8
2014-Jul-16 13:29N 38°41' W 009°11'2 1.6
2014-Jul-16 12:33N 38°41' W 009°09'0 0.0
2014-Jul-16 10:24N 38°41' W 009°09'0 0.0
2014-Jul-16 09:33N 38°41' W 009°09'0 0.0
2014-Jul-15 14:04N 38°41' W 009°09'0 0.0
2014-Jul-15 13:33N 38°41' W 009°09'0 0.0
2014-Jul-15 10:08N 38°41' W 009°09'0 0.0
2014-Jul-15 09:34N 38°41' W 009°09'  

Dump ship's entire track history